TimeCST,TemperatureF,Dew PointF,Humidity,Sea Level PressureIn,VisibilityMPH,Wind Direction,Wind SpeedMPH,Gust SpeedMPH,PrecipitationIn,Events,Conditions,WindDirDegrees,DateUTC
12:15 AM,10.4,-4.0,52,30.24,10.0,WSW,5.8,-,N/A,,Overcast,250,2013-01-23 06:15:00
12:35 AM,10.4,-4.0,52,30.23,10.0,West,8.1,-,N/A,,Overcast,260,2013-01-23 06:35:00
12:55 AM,10.4,-4.0,52,30.22,10.0,West,5.8,-,N/A,,Overcast,260,2013-01-23 06:55:00
1:15 AM,10.4,-4.0,52,30.22,10.0,WSW,6.9,-,N/A,,Overcast,250,2013-01-23 07:15:00
1:35 AM,10.4,-2.2,57,30.22,10.0,WSW,5.8,-,N/A,,Overcast,250,2013-01-23 07:35:00
1:55 AM,10.4,-2.2,57,30.22,10.0,WSW,4.6,-,N/A,,Overcast,240,2013-01-23 07:55:00
2:15 AM,12.2,-2.2,53,30.22,10.0,WSW,6.9,-,N/A,,Overcast,240,2013-01-23 08:15:00
2:55 AM,12.2,-0.4,57,30.22,10.0,WSW,5.8,-,N/A,,Overcast,240,2013-01-23 08:55:00
4:15 AM,12.2,-0.4,57,30.20,10.0,WSW,5.8,-,N/A,,Overcast,240,2013-01-23 10:15:00
4:35 AM,12.2,-0.4,57,30.19,10.0,SW,5.8,-,N/A,,Overcast,230,2013-01-23 10:35:00
4:55 AM,12.2,1.4,62,30.18,10.0,SW,5.8,-,N/A,,Overcast,220,2013-01-23 10:55:00
5:15 AM,12.2,1.4,62,30.17,10.0,SSW,3.5,-,N/A,,Overcast,210,2013-01-23 11:15:00
5:35 AM,12.2,1.4,62,30.17,10.0,SW,6.9,-,N/A,,Overcast,220,2013-01-23 11:35:00
5:55 AM,12.2,1.4,62,30.17,10.0,SSW,3.5,-,N/A,,Overcast,210,2013-01-23 11:55:00
6:15 AM,14.0,1.4,57,30.17,10.0,SSW,5.8,-,N/A,,Overcast,210,2013-01-23 12:15:00
6:35 AM,14.0,3.2,62,30.17,10.0,SSW,6.9,-,N/A,,Overcast,210,2013-01-23 12:35:00
6:55 AM,14.0,3.2,62,30.16,10.0,SSW,6.9,-,N/A,,Overcast,210,2013-01-23 12:55:00
7:15 AM,14.0,5.0,67,30.15,7.0,SSW,8.1,-,N/A,Snow,Light Snow,200,2013-01-23 13:15:00
7:55 AM,14.0,5.0,67,30.16,4.0,SSW,6.9,-,N/A,Snow,Light Snow,210,2013-01-23 13:55:00
8:15 AM,14.0,6.8,73,30.15,5.0,SSW,8.1,-,N/A,Snow,Light Snow,210,2013-01-23 14:15:00
8:35 AM,14.0,8.6,79,30.14,7.0,SSW,10.4,-,N/A,Snow,Light Snow,200,2013-01-23 14:35:00
8:55 AM,14.0,8.6,79,30.14,10.0,SSW,9.2,-,N/A,Snow,Light Snow,200,2013-01-23 14:55:00
9:35 AM,14.0,10.4,86,30.14,3.0,SSW,9.2,-,N/A,Snow,Light Snow,200,2013-01-23 15:35:00
9:55 AM,15.8,10.4,79,30.14,2.5,SSW,9.2,-,N/A,Snow,Light Snow,200,2013-01-23 15:55:00
10:15 AM,15.8,10.4,79,30.15,3.0,SSW,11.5,-,N/A,Snow,Light Snow,210,2013-01-23 16:15:00
10:35 AM,15.8,10.4,79,30.14,2.5,SSW,9.2,-,N/A,Snow,Light Snow,200,2013-01-23 16:35:00
10:55 AM,17.6,10.4,73,30.14,2.5,SW,8.1,-,N/A,Snow,Light Snow,230,2013-01-23 16:55:00
11:15 AM,17.6,10.4,73,30.12,4.0,SW,9.2,-,N/A,Snow,Light Snow,230,2013-01-23 17:15:00
11:55 AM,19.4,12.2,74,30.10,7.0,WSW,8.1,-,N/A,Snow,Light Snow,240,2013-01-23 17:55:00
12:15 PM,19.4,10.4,68,30.09,10.0,WSW,13.8,17.3,N/A,Snow,Light Snow,250,2013-01-23 18:15:00
12:35 PM,19.4,12.2,74,30.08,7.0,West,12.7,-,N/A,Snow,Light Snow,260,2013-01-23 18:35:00
12:55 PM,19.4,12.2,74,30.07,7.0,West,12.7,18.4,N/A,Snow,Light Snow,260,2013-01-23 18:55:00
1:15 PM,19.4,12.2,74,30.06,3.0,West,12.7,-,N/A,Snow,Light Snow,260,2013-01-23 19:15:00
1:55 PM,21.2,12.2,68,30.06,10.0,West,12.7,17.3,N/A,Snow,Light Snow,280,2013-01-23 19:55:00
2:15 PM,21.2,12.2,68,30.04,7.0,West,16.1,-,N/A,Snow,Light Snow,260,2013-01-23 20:15:00
2:35 PM,21.2,14.0,74,30.05,7.0,West,12.7,-,N/A,Snow,Light Snow,260,2013-01-23 20:35:00
2:55 PM,21.2,14.0,74,30.06,10.0,West,11.5,-,N/A,Snow,Light Snow,270,2013-01-23 20:55:00
3:15 PM,21.2,12.2,68,30.06,10.0,West,17.3,24.2,N/A,Snow,Light Snow,280,2013-01-23 21:15:00
3:55 PM,21.2,12.2,68,30.07,10.0,West,13.8,23.0,N/A,Snow,Light Snow,280,2013-01-23 21:55:00
4:15 PM,21.2,12.2,68,30.08,7.0,WNW,16.1,23.0,N/A,Snow,Light Snow,290,2013-01-23 22:15:00
4:35 PM,21.2,12.2,68,30.08,10.0,West,15.0,19.6,N/A,Snow,Light Snow,280,2013-01-23 22:35:00
4:55 PM,21.2,10.4,63,30.09,10.0,WNW,13.8,19.6,N/A,,Overcast,300,2013-01-23 22:55:00
5:15 PM,21.2,8.6,58,30.10,10.0,NW,12.7,20.7,N/A,,Overcast,310,2013-01-23 23:15:00
5:55 PM,19.4,8.6,63,30.12,10.0,NW,17.3,24.2,N/A,,Overcast,310,2013-01-23 23:55:00
6:15 PM,19.4,6.8,58,30.14,10.0,NW,13.8,19.6,N/A,,Mostly Cloudy,310,2013-01-24 00:15:00
6:35 PM,17.6,10.4,73,30.15,4.0,NNW,15.0,25.3,N/A,Snow,Light Snow,340,2013-01-24 00:35:00
6:55 PM,17.6,8.6,68,30.17,7.0,NW,13.8,27.6,N/A,Snow,Light Snow,320,2013-01-24 00:55:00
7:15 PM,17.6,8.6,68,30.20,4.0,NNW,20.7,28.8,N/A,Snow,Light Snow,340,2013-01-24 01:15:00
7:35 PM,15.8,5.0,62,30.21,10.0,North,20.7,27.6,N/A,,Overcast,350,2013-01-24 01:35:00
7:55 PM,14.0,-0.4,53,30.22,10.0,NNW,26.5,31.1,N/A,,Scattered Clouds,330,2013-01-24 01:55:00
8:35 PM,12.2,5.0,73,30.26,3.0,North,21.9,26.5,N/A,Snow,Light Snow,350,2013-01-24 02:35:00
8:55 PM,12.2,-4.0,48,30.28,10.0,North,20.7,27.6,N/A,,Scattered Clouds,350,2013-01-24 02:55:00
9:15 PM,10.4,-4.0,52,30.29,10.0,North,13.8,24.2,N/A,,Scattered Clouds,350,2013-01-24 03:15:00
9:35 PM,10.4,-4.0,52,30.31,10.0,North,13.8,27.6,N/A,,Scattered Clouds,350,2013-01-24 03:35:00
9:55 PM,8.6,-2.2,62,30.33,10.0,North,15.0,20.7,N/A,,Scattered Clouds,350,2013-01-24 03:55:00
10:15 PM,8.6,-4.0,57,30.33,10.0,North,13.8,20.7,N/A,,Clear,350,2013-01-24 04:15:00
10:35 PM,8.6,-5.8,52,30.34,10.0,North,17.3,-,N/A,,Clear,350,2013-01-24 04:35:00
10:55 PM,6.8,-7.6,52,30.35,10.0,North,13.8,21.9,N/A,,Clear,350,2013-01-24 04:55:00
11:15 PM,6.8,-7.6,52,30.37,10.0,North,23.0,27.6,N/A,,Clear,360,2013-01-24 05:15:00
11:35 PM,5.0,-7.6,56,30.39,10.0,North,11.5,-,N/A,,Clear,350,2013-01-24 05:35:00
11:55 PM,5.0,-7.6,56,30.41,10.0,NNW,12.7,17.3,N/A,,Clear,340,2013-01-24 05:55:00